| time (UTC) | temp F | wind direction | speed MPH | gust MPH | rain 1hr in | rain 24hr in | rain mn in | humidity % | barometer mb |
| 20260901044549 | 57 | 333 | 0.0 | 0.0 | 0.00 | 0.00 | 0.00 | 95 | 1013.8 |
| 20260901043031 | 57 | 19 | 0.0 | 3.0 | 0.00 | 0.00 | 0.00 | 95 | 1013.6 |
| 20260901041532 | 57 | 327 | 0.0 | 2.0 | 0.00 | 0.00 | 0.00 | 95 | 1013.5 |
| 20260901040033 | 57 | 346 | 0.0 | 6.0 | 0.00 | 0.00 | 0.00 | 95 | 1013.4 |
| 20260901034535 | 58 | 358 | 0.0 | 1.0 | 0.00 | 0.00 | 0.00 | 95 | 1013.3 |
| 20260901033049 | 58 | 346 | 0.0 | 2.0 | 0.00 | 0.00 | 0.00 | 95 | 1013.2 |
| 20260901031532 | 58 | 335 | 0.0 | 2.0 | 0.00 | 0.00 | 0.00 | 94 | 1013.1 |
| 20260901030034 | 58 | 343 | 0.0 | 8.0 | 0.00 | 0.00 | 0.00 | 94 | 1012.9 |
| 20260901024529 | 58 | 318 | 1.0 | 5.0 | 0.00 | 0.00 | 0.00 | 94 | 1012.9 |
| 20260901023027 | 58 | 300 | 0.0 | 2.0 | 0.00 | 0.00 | 0.00 | 93 | 1012.9 |
| 20260901021531 | 58 | 300 | 0.0 | 5.0 | 0.00 | 0.00 | 0.00 | 93 | 1013.1 |
| 20260901020032 | 58 | 331 | 0.0 | 6.0 | 0.00 | 0.00 | 0.00 | 92 | 1013.0 |
| 20260901014526 | 59 | 298 | 0.0 | 6.0 | 0.00 | 0.00 | 0.00 | 90 | 1013.0 |
| 20260901013031 | 60 | 292 | 0.0 | 8.0 | 0.00 | 0.00 | 0.00 | 90 | 1012.9 |
| 20260901011525 | 60 | 305 | 0.0 | 5.0 | 0.00 | 0.00 | 0.00 | 88 | 1013.0 |
| 20260901010025 | 61 | 289 | 0.0 | 8.0 | 0.00 | 0.00 | 0.00 | 86 | 1013.0 |
| 20260901004525 | 61 | 308 | 0.0 | 9.0 | 0.00 | 0.00 | 0.00 | 85 | 1013.1 |
| 20260901003036 | 63 | 325 | 1.0 | 9.0 | 0.00 | 0.00 | 0.00 | 82 | 1013.2 |
| 20260901001524 | 63 | 294 | 0.0 | 6.0 | 0.00 | 0.00 | 0.00 | 83 | 1013.2 |
| 20260901000031 | 63 | 339 | 1.0 | 10.0 | 0.00 | 0.00 | 0.00 | 83 | 1013.1 |
| 20260831234522 | 63 | 336 | 1.0 | 8.0 | 0.00 | 0.00 | 0.00 | 82 | 1013.1 |
| 20260831233021 | 63 | 298 | 0.0 | 10.0 | 0.00 | 0.00 | 0.00 | 83 | 1013.2 |
| 20260831231520 | 63 | 304 | 1.0 | 9.0 | 0.00 | 0.00 | 0.00 | 82 | 1013.4 |
| 20260831230019 | 63 | 313 | 0.0 | 9.0 | 0.00 | 0.00 | 0.00 | 83 | 1013.5 |
| 20260831224519 | 63 | 296 | 2.0 | 9.0 | 0.00 | 0.00 | 0.00 | 83 | 1013.5 |
| 20260831223021 | 63 | 322 | 0.0 | 8.0 | 0.00 | 0.00 | 0.00 | 83 | 1013.7 |
| 20260831221518 | 63 | 305 | 0.0 | 10.0 | 0.00 | 0.00 | 0.00 | 83 | 1013.9 |
| 20260831220025 | 62 | 308 | 0.0 | 11.0 | 0.00 | 0.00 | 0.00 | 85 | 1014.0 |
| 20260831214515 | 62 | 312 | 0.0 | 9.0 | 0.00 | 0.00 | 0.00 | 85 | 1014.0 |
| 20260831213014 | 62 | 321 | 0.0 | 9.0 | 0.00 | 0.00 | 0.00 | 85 | 1014.1 |
| 20260831211513 | 61 | 296 | 0.0 | 9.0 | 0.00 | 0.00 | 0.00 | 86 | 1014.3 |
| 20260831210013 | 61 | 316 | 0.0 | 4.0 | 0.00 | 0.00 | 0.00 | 86 | 1014.3 |
| 20260831204512 | 61 | 345 | 0.0 | 5.0 | 0.00 | 0.00 | 0.00 | 85 | 1014.4 |
| 20260831203011 | 61 | 333 | 0.0 | 3.0 | 0.00 | 0.00 | 0.00 | 85 | 1014.2 |
| 20260831201511 | 61 | 244 | 0.0 | 4.0 | 0.00 | 0.00 | 0.00 | 83 | 1014.4 |
| 20260831200008 | 61 | 298 | 0.0 | 1.0 | 0.00 | 0.00 | 0.00 | 84 | 1014.4 |
| 20260831194515 | 61 | 310 | 0.0 | 2.0 | 0.00 | 0.00 | 0.00 | 83 | 1014.2 |
| 20260831193006 | 61 | 245 | 0.0 | 0.0 | 0.00 | 0.00 | 0.00 | 84 | 1014.4 |
| 20260831191506 | 61 | 348 | 0.0 | 0.0 | 0.00 | 0.00 | 0.00 | 83 | 1014.6 |
| 20260831190006 | 60 | 304 | 0.0 | 5.0 | 0.00 | 0.00 | 0.00 | 85 | 1014.5 |
| 20260831184506 | 59 | 298 | 0.0 | 0.0 | 0.00 | 0.00 | 0.00 | 84 | 1014.4 |
| 20260831183001 | 60 | 311 | 0.0 | 0.0 | 0.00 | 0.00 | 0.00 | 85 | 1014.4 |
| 20260831181604 | 60 | 301 | 0.0 | 2.0 | 0.00 | 0.00 | 0.00 | 86 | 1014.3 |
| 20260831180101 | 59 | 340 | 0.0 | 0.0 | 0.00 | 0.00 | 0.00 | 89 | 1014.4 |
| 20260831174555 | 59 | 318 | 0.0 | 4.0 | 0.00 | 0.00 | 0.00 | 93 | 1014.2 |
| 20260831173057 | 57 | 221 | 0.0 | 0.0 | 0.00 | 0.00 | 0.00 | 95 | 1014.1 |
| 20260831171548 | 55 | 193 | 0.0 | 0.0 | 0.00 | 0.00 | 0.00 | 95 | 1013.9 |
| 20260831170047 | 55 | 173 | 0.0 | 0.0 | 0.00 | 0.00 | 0.00 | 96 | 1013.8 |
| 20260831164545 | 54 | 182 | 0.0 | 0.0 | 0.00 | 0.00 | 0.00 | 96 | 1013.7 |
| 20260831163044 | 54 | 250 | 0.0 | 0.0 | 0.00 | 0.00 | 0.00 | 96 | 1013.7 |
| 20260831161547 | 54 | 277 | 0.0 | 0.0 | 0.00 | 0.00 | 0.00 | 96 | 1013.8 |
| 20260831160042 | 53 | 277 | 0.0 | 2.0 | 0.00 | 0.00 | 0.00 | 96 | 1013.7 |
| 20260831154545 | 53 | 121 | 0.0 | 1.0 | 0.00 | 0.00 | 0.00 | 96 | 1013.7 |
| 20260831153040 | 53 | 154 | 0.0 | 0.0 | 0.00 | 0.00 | 0.00 | 96 | 1013.6 |
| 20260831151539 | 53 | 42 | 0.0 | 2.0 | 0.00 | 0.00 | 0.00 | 96 | 1013.2 |
| 20260831150040 | 53 | 21 | 0.0 | 0.0 | 0.00 | 0.00 | 0.00 | 96 | 1013.2 |
| 20260831144548 | 53 | 13 | 0.0 | 0.0 | 0.00 | 0.00 | 0.00 | 96 | 1013.2 |
| 20260831143036 | 52 | 1 | 0.0 | 0.0 | 0.00 | 0.00 | 0.00 | 96 | 1013.0 |
| 20260831141535 | 52 | 28 | 0.0 | 0.0 | 0.00 | 0.00 | 0.00 | 96 | 1013.0 |
| 20260831140035 | 53 | 3 | 0.0 | 0.0 | 0.00 | 0.00 | 0.00 | 96 | 1012.7 |
| 20260831134531 | 53 | 12 | 0.0 | 0.0 | 0.00 | 0.00 | 0.00 | 96 | 1012.4 |
| 20260831133034 | 53 | 175 | 0.0 | 0.0 | 0.00 | 0.00 | 0.00 | 96 | 1012.2 |
| 20260831131530 | 53 | 151 | 0.0 | 10.0 | 0.00 | 0.00 | 0.00 | 96 | 1011.7 |
| 20260831130028 | 53 | 114 | 0.0 | 6.0 | 0.00 | 0.00 | 0.00 | 96 | 1011.8 |
| 20260831124527 | 53 | 168 | 0.0 | 2.0 | 0.00 | 0.00 | 0.00 | 96 | 1011.8 |
| 20260831123027 | 53 | 166 | 0.0 | 2.0 | 0.00 | 0.00 | 0.00 | 96 | 1011.9 |
| 20260831121527 | 53 | 144 | 0.0 | 0.0 | 0.00 | 0.00 | 0.00 | 96 | 1012.1 |
| 20260831120036 | 53 | 189 | 0.0 | 4.0 | 0.00 | 0.00 | 0.00 | 96 | 1012.2 |
| 20260831114526 | 53 | 159 | 0.0 | 2.0 | 0.00 | 0.00 | 0.00 | 96 | 1012.3 |
| 20260831113025 | 53 | 161 | 0.0 | 0.0 | 0.00 | 0.00 | 0.00 | 96 | 1012.4 |
| 20260831111523 | 52 | 121 | 0.0 | 0.0 | 0.00 | 0.00 | 0.00 | 96 | 1012.3 |
| 20260831110032 | 52 | 120 | 0.0 | 0.0 | 0.00 | 0.00 | 0.00 | 95 | 1012.3 |
| 20260831104530 | 52 | 125 | 0.0 | 0.0 | 0.00 | 0.00 | 0.00 | 95 | 1012.3 |
| 20260831103021 | 52 | 136 | 0.0 | 0.0 | 0.00 | 0.00 | 0.00 | 95 | 1012.3 |
| 20260831101526 | 52 | 139 | 0.0 | 0.0 | 0.00 | 0.00 | 0.00 | 95 | 1012.2 |
| 20260831100021 | 52 | 146 | 0.0 | 0.0 | 0.00 | 0.00 | 0.00 | 95 | 1011.9 |
| 20260831094517 | 52 | 131 | 0.0 | 4.0 | 0.00 | 0.00 | 0.00 | 95 | 1011.7 |
| 20260831093019 | 52 | 111 | 0.0 | 2.0 | 0.00 | 0.00 | 0.00 | 94 | 1011.7 |
| 20260831091534 | 53 | 130 | 0.0 | 2.0 | 0.00 | 0.00 | 0.00 | 95 | 1011.7 |
| 20260831090014 | 53 | 156 | 1.0 | 7.0 | 0.00 | 0.00 | 0.00 | 95 | 1011.4 |
| 20260831084512 | 53 | 160 | 1.0 | 9.0 | 0.00 | 0.00 | 0.00 | 94 | 1011.5 |
| 20260831083010 | 53 | 152 | 1.0 | 8.0 | 0.00 | 0.00 | 0.00 | 94 | 1011.6 |
| 20260831081527 | 53 | 163 | 0.0 | 7.0 | 0.00 | 0.00 | 0.00 | 93 | 1011.7 |
| 20260831080014 | 53 | 160 | 0.0 | 6.0 | 0.00 | 0.00 | 0.00 | 92 | 1011.8 |
| 20260831074505 | 54 | 113 | 0.0 | 2.0 | 0.00 | 0.00 | 0.00 | 91 | 1011.8 |
| 20260831073012 | 54 | 150 | 0.0 | 8.0 | 0.00 | 0.00 | 0.00 | 91 | 1011.8 |
| 20260831071502 | 54 | 139 | 0.0 | 5.0 | 0.00 | 0.00 | 0.00 | 92 | 1011.5 |
| 20260831070100 | 54 | 122 | 0.0 | 0.0 | 0.00 | 0.00 | 0.00 | 91 | 1011.8 |
| 20260831064603 | 54 | 124 | 0.0 | 0.0 | 0.00 | 0.00 | 0.00 | 91 | 1011.7 |
| 20260831063101 | 55 | 124 | 0.0 | 0.0 | 0.00 | 0.00 | 0.00 | 91 | 1011.6 |
| 20260831061559 | 55 | 100 | 0.0 | 0.0 | 0.00 | 0.00 | 0.00 | 90 | 1011.6 |
| 20260831060100 | 55 | 99 | 0.0 | 0.0 | 0.00 | 0.00 | 0.00 | 91 | 1011.5 |
| 20260831054558 | 55 | 97 | 0.0 | 0.0 | 0.00 | 0.00 | 0.00 | 92 | 1011.3 |
| 20260831053058 | 55 | 108 | 0.0 | 0.0 | 0.00 | 0.00 | 0.00 | 94 | 1011.3 |
| 20260831051556 | 54 | 92 | 0.0 | 0.0 | 0.00 | 0.00 | 0.00 | 94 | 1011.4 |
| 20260831050055 | 53 | 126 | 0.0 | 0.0 | 0.00 | 0.00 | 0.00 | 94 | 1011.6 |